Change the Weather History Date:

Friday, December 7, 2012

  Actual Average Record
Temperature  
Mean Temperature 35 °F -  
Max Temperature 42 °F 45 °F 75 °F (1998)
Min Temperature 28 °F 31 °F 15 °F (2002)
Degree Days  
Heating Degree Days 30    
Moisture  
Dew Point 34 °F    
Average Humidity 88    
Maximum Humidity 100    
Minimum Humidity 69    
Precipitation  
Precipitation 0.14 in - - ()
Sea Level Pressure  
Sea Level Pressure 30.13 in    
Wind  
Wind Speed 1 mph (North)    
Max Wind Speed 4 mph    
Max Gust Speed -    
Visibility 5 miles    
Events Rain    
Averages and records for this station are not official NWS values.
T = Trace of Precipitation, MM = Missing Value Source: NWS Daily Summary

Daily Weather History Graph

Daily Weather History Graph

Search for Another Location

Airport or City:

Trip Planner

Search our weather history database for the weather conditions in past years. The results will help you decide how hot, cold, wet, or windy it might be!

Date:

Astronomy

Dec. 07, 2012 Rise Set
Actual Time 7:07 AM EST 4:28 PM EST
Civil Twilight 6:36 AM EST 4:59 PM EST
Nautical Twilight 6:02 AM EST 5:33 PM EST
Astronomical Twilight 5:29 AM EST 6:06 PM EST
Moon 12:21 AM EST 12:25 PM EST
Length of Visible Light 10h 22m
Length of Day
9h 20m
Last Quarter, 39% of the Moon is Illuminated
Dec 7
Last Quarter
Dec 13
New
Dec 20
First Quarter
Dec 28
Full
Jan 4
Last Quarter

Hourly Weather History & Observations

Time (EST) Temp. Windchill Dew Point Humidity Pressure Visibility Wind Dir Wind Speed Gust Speed Precip Events Conditions
12:51 AM 30.0 °F - 21.0 °F 69% 30.28 in 10.0 mi Calm Calm - N/A   Clear
1:51 AM 28.0 °F - 19.9 °F 72% 30.28 in 10.0 mi Calm Calm - N/A   Clear
2:51 AM 30.9 °F - 23.0 °F 72% 30.26 in 10.0 mi Calm Calm - N/A   Clear
3:51 AM 28.0 °F - 23.0 °F 81% 30.24 in 10.0 mi Calm Calm - N/A   Clear
4:51 AM 30.0 °F - 24.1 °F 79% 30.23 in 10.0 mi Calm Calm - N/A   Clear
5:51 AM 30.2 °F - 24.8 °F 80% 30.22 in 10.0 mi Calm Calm - N/A   Scattered Clouds
6:51 AM 28.9 °F 25.2 °F 23.0 °F 78% 30.22 in 10.0 mi North 3.5 mph - N/A   Clear
7:46 AM 30.2 °F 26.7 °F 24.8 °F 80% 30.22 in 10.0 mi North 3.5 mph - N/A   Overcast
7:51 AM 30.9 °F - 25.0 °F 79% 30.22 in 10.0 mi Calm Calm - N/A   Overcast
8:51 AM 35.1 °F 32.2 °F 27.0 °F 72% 30.22 in 10.0 mi Variable 3.5 mph - N/A   Overcast
9:14 AM 35.6 °F - 26.6 °F 70% 30.21 in 10.0 mi Calm Calm - 0.00 in Rain Light Rain
9:51 AM 36.0 °F - 30.0 °F 79% 30.20 in 9.0 mi Calm Calm - 0.01 in Rain Light Rain
10:49 AM 35.6 °F 32.8 °F 30.2 °F 81% 30.19 in 10.0 mi NW 3.5 mph - 0.01 in Rain Light Rain
10:51 AM 35.1 °F 32.2 °F 30.9 °F 85% 30.19 in 10.0 mi NW 3.5 mph - 0.01 in Rain Light Rain
11:51 AM 37.0 °F - 34.0 °F 89% 30.17 in 4.0 mi Calm Calm - 0.01 in Rain Light Rain
12:13 PM 37.4 °F - 33.8 °F 87% 30.16 in 2.5 mi Calm Calm - 0.01 in Rain Light Rain
12:51 PM 37.0 °F - 34.0 °F 89% 30.13 in 2.0 mi Calm Calm - 0.04 in Rain Light Rain
1:21 PM 37.4 °F 34.9 °F 35.6 °F 93% 30.12 in 3.0 mi NNW 3.5 mph - 0.00 in Rain Light Rain
1:46 PM 37.4 °F - 35.6 °F 93% 30.11 in 2.0 mi Calm Calm - 0.01 in Rain Light Rain
1:51 PM 37.9 °F - 36.0 °F 93% 30.11 in 2.0 mi Calm Calm - 0.01 in Rain Light Rain
2:51 PM 39.0 °F - 37.0 °F 93% 30.10 in 1.5 mi Calm Calm - 0.01 in Rain Light Rain
2:58 PM 39.2 °F 37.0 °F 37.4 °F 93% 30.10 in 2.0 mi NW 3.5 mph - 0.01 in Rain Light Rain
3:20 PM 39.2 °F - 37.4 °F 93% 30.09 in 1.0 mi Calm Calm - 0.01 in Rain Light Rain
3:29 PM 39.2 °F - 37.4 °F 93% 30.09 in 1.0 mi Calm Calm - 0.01 in   Light Drizzle
3:38 PM 39.2 °F - 37.4 °F 93% 30.10 in 1.0 mi Calm Calm - 0.01 in   Light Drizzle
3:47 PM 39.2 °F 37.0 °F 37.4 °F 93% 30.10 in 1.0 mi Variable 3.5 mph - 0.01 in   Light Drizzle
3:51 PM 39.0 °F - 37.9 °F 96% 30.10 in 1.0 mi Calm Calm - 0.01 in   Light Drizzle
4:15 PM 39.2 °F - 37.4 °F 93% 30.09 in 1.0 mi Calm Calm - 0.01 in   Light Drizzle
4:51 PM 39.0 °F - 37.9 °F 96% 30.09 in 1.8 mi Calm Calm - 0.01 in   Light Drizzle
5:02 PM 39.2 °F 37.0 °F 37.4 °F 93% 30.08 in 1.8 mi ENE 3.5 mph - 0.01 in   Light Drizzle
5:25 PM 39.2 °F - 39.2 °F 100% 30.07 in 3.0 mi Calm Calm - 0.01 in   Mostly Cloudy
5:51 PM 41.0 °F - 39.0 °F 93% 30.07 in 3.0 mi Calm Calm - 0.01 in Rain Light Rain
6:34 PM 42.8 °F 41.1 °F 39.2 °F 87% 30.07 in 3.0 mi Variable 3.5 mph - 0.01 in Rain Light Rain
6:46 PM 41.0 °F - 39.2 °F 93% 30.07 in 3.0 mi Calm Calm - 0.01 in Rain Light Rain
6:51 PM 41.0 °F - 39.0 °F 93% 30.07 in 3.0 mi Calm Calm - 0.01 in Rain Light Rain
7:51 PM 41.0 °F - 39.2 °F 93% 30.07 in 3.0 mi Calm Calm - N/A Rain Light Rain
8:21 PM 41.0 °F 39.0 °F 39.2 °F 93% 30.08 in 3.0 mi NNW 3.5 mph - 0.00 in Rain Light Rain
8:51 PM 39.9 °F - 39.0 °F 97% 30.08 in 3.0 mi Calm Calm - 0.00 in   Overcast
9:41 PM 41.0 °F 39.0 °F 39.2 °F 93% 30.06 in 5.0 mi NNE 3.5 mph - 0.00 in   Overcast
9:51 PM 41.0 °F - 39.0 °F 93% 30.06 in 5.0 mi Calm Calm - 0.00 in   Overcast
10:33 PM 41.0 °F - 39.2 °F 93% 30.04 in 6.0 mi Calm Calm - N/A   Overcast
10:51 PM 41.0 °F 39.0 °F 39.0 °F 93% 30.04 in 3.0 mi East 3.5 mph - 0.00 in Rain Light Rain
11:30 PM 42.8 °F - 39.2 °F 87% 30.03 in 6.0 mi Calm Calm - 0.01 in Rain Light Rain
11:51 PM 42.1 °F - 39.9 °F 92% 30.02 in 4.0 mi Calm Calm - 0.01 in Rain Light Rain